CYAB

Arctic Bay  

Arctic Bay, , Canada
Issued Wind Visibility Ceiling Temperature Dew Point Humidity Barometer
Nov-24
14:00 UTC
Varies @3 KTS 15 miles Broken
8,000' AGL
-7° C
19° F
-11° C
12° F
73% 29.6" Hg
1002.8 hPa
VFR
Nov-24
13:00 UTC
180°
3 KTS
15 miles Broken
8,000' AGL
-7° C
19° F
-9° C
16° F
86% 29.63" Hg
1003.8 hPa
VFR
Nov-24
12:00 UTC
310°
3 KTS
15 miles Broken
2,500' AGL
-6° C
21° F
-11° C
12° F
68% 29.63" Hg
1003.8 hPa
MVFR
Nov-23
23:00 UTC
070°
12 KTS
15 miles   C
32° F
-6° C
21° F
64% 29.8" Hg
1009.4 hPa
VFR
Nov-23
22:00 UTC
050°
11 KTS
15 miles Broken
7,000' AGL
-1° C
30° F
-6° C
21° F
69% 29.81" Hg
1009.8 hPa
VFR
Nov-23
21:00 UTC
090°
11 KTS
Gust 16 KTS
15 miles Broken
3,500' AGL
-1° C
30° F
-6° C
21° F
69% 29.81" Hg
1009.8 hPa
VFR
Nov-23
20:00 UTC
160°
4 KTS
Gust 15 KTS
30 miles Broken
7,000' AGL
-2° C
28° F
-6° C
21° F
74% 29.82" Hg
1010 hPa
VFR
Nov-23
19:00 UTC
30 miles Broken
8,000' AGL
-1° C
30° F
-6° C
21° F
69% 29.82" Hg
1010 hPa
VFR
Nov-23
18:27 UTC
060°
15 KTS
Gust 21 KTS
30 miles Broken
8,000' AGL
-1° C
30° F
-6° C
21° F
69% 29.81" Hg
1009.8 hPa
VFR
Nov-23
18:00 UTC
060°
13 KTS
Gust 27 KTS
30 miles Broken
8,000' AGL
-1° C
30° F
-6° C
21° F
69% 29.81" Hg
1009.8 hPa
VFR
Nov-23
17:00 UTC
040°
19 KTS
Gust 27 KTS
30 miles   -1° C
30° F
-6° C
21° F
69% 29.8" Hg
1009.5 hPa
VFR
Nov-23
16:00 UTC
060°
18 KTS
Gust 33 KTS
30 miles   C
32° F
-6° C
21° F
64% 29.81" Hg
1009.7 hPa
VFR
Nov-23
15:00 UTC
090°
6 KTS
15 miles   C
32° F
-6° C
21° F
64% 29.83" Hg
1010.3 hPa
VFR